Theta_e
306 306 304 302 303 303 302 301 302 301 300 301 303 305 307 305 305 305 305 305 308 308 307 307 307 307 307 307 310 310 311 312 311 310 308 307 306 307 311 307 307 312 312 312
304 303 301 300 300 301 301 300 301 301 300 302 304 304 304 303 304 305 305 305 304 304 305 306 306 306 306 306 307 308 307 308 308 309 306 306 307 307 310 308 305 308 311 311
302 301 300 300 300 301 302 301 300 302 302 304 304 305 305 306 304 304 303 303 302 302 303 303 303 303 305 305 306 305 307 307 306 307 306 306 306 305 304 308 308 305 307 306
300 299 300 300 300 301 300 301 300 301 303 302 303 304 305 305 305 304 302 303 304 304 303 304 305 305 305 305 306 305 306 305 305 306 306 306 306 305 304 305 305 305 305 305
299 299 299 300 301 302 300 302 302 301 301 303 303 303 302 304 303 304 304 304 304 303 303 304 304 304 302 303 301 304 304 302 303 304 305 305 306 305 304 304 304 305 304 304
299 298 299 299 300 301 299 301 301 303 302 301 301 301 303 303 304 302 303 303 302 301 302 301 300 300 300 300 299 299 303 302 304 303 303 303 303 303 302 302 304 303 301 301
298 297 297 299 300 299 300 301 300 301 299 299 301 303 303 303 302 301 301 301 300 300 300 299 298 298 297 297 297 298 298 300 299 299 300 300 299 300 301 301 300 300 300 299
296 295 299 300 300 299 299 299 300 301 296 298 299 302 299 298 298 298 298 298 298 298 298 296 298 296 297 297 297 296 297 298 295 297 299 299 299 299 299 299 298 299 299 299
295 298 299 299 299 299 299 299 300 300 296 297 298 297 297 295 296 296 298 298 298 298 295 296 298 296 297 297 298 297 298 298 299 300 300 300 300 299 298 298 298 298 297 297
296 297 298 298 297 297 298 298 299 299 298 298 297 296 297 298 296 294 297 299 298 298 293 292 295 297 297 297 297 293 296 291 292 294 296 297 298 297 298 298 297 296 296 297
296 295 296 296 296 296 296 297 297 298 299 298 298 298 297 297 297 293 298 295 297 294 295 292 295 296 296 297 297 297 294 293 292 294 289 292 297 296 296 296 296 296 296 297
294 294 295 296 296 295 294 294 295 295 296 298 298 298 298 298 298 298 298 296 297 296 293 293 292 296 294 296 295 295 293 294 295 295 295 296 296 295 295 296 296 296 296 297
294 294 295 295 294 294 295 295 296 295 295 295 295 297 298 296 295 297 297 297 297 298 297 295 293 295 293 293 294 295 295 295 293 294 294 294 295 295 296 296 296 297 297 298
293 294 295 295 294 293 292 293 294 295 295 291 295 298 298 298 298 298 298 297 297 297 297 296 289 293 294 293 294 294 294 294 294 294 295 295 296 297 298 298 298 299 299 299
295 295 294 293 291 292 293 295 295 295 295 292 294 294 295 295 297 298 298 297 297 297 296 287 289 293 293 292 293 293 294 294 294 295 296 296 296 298 298 298 298 298 299 299
293 292 291 292 293 293 295 296 295 295 295 294 289 294 294 296 296 296 296 296 297 296 296 293 296 296 294 288 294 294 295 295 295 295 297 298 298 297 296 296 297 296 296 296
292 293 293 292 292 292 295 295 293 292 292 293 287 291 294 294 296 295 296 296 296 296 296 294 295 295 296 293 296 295 295 295 298 298 297 297 296 296 295 294 293 294 294 294
293 292 292 291 291 294 295 294 292 292 294 293 286 290 293 296 296 295 296 296 296 296 296 296 294 295 295 296 295 295 298 298 298 296 295 294 294 293 293 293 293 293 293 293
292 293 293 293 294 295 295 294 293 293 293 294 291 289 287 296 296 296 296 296 294 296 293 294 294 293 294 295 296 298 297 296 295 294 292 293 292 293 293 292 292 292 292 292
292 294 293 293 294 293 292 293 293 293 293 293 291 294 291 294 296 294 296 296 295 293 295 296 294 296 296 297 298 297 295 293 293 294 293 292 292 291 292 292 292 292 292 292
294 294 295 294 292 294 294 294 290 292 291 294 294 294 293 295 293 295 296 292 295 295 295 298 298 300 297 296 295 294 293 294 293 290 290 290 290 290 291 292 292 291 291 293
294 294 293 292 293 293 288 283 290 292 295 295 294 296 296 296 296 297 296 295 294 296 297 298 299 297 297 295 294 294 294 293 290 290 290 290 289 289 291 291 292 291 291 292
294 293 295 294 292 284 285 285 290 289 295 297 297 292 297 296 296 295 294 294 294 297 298 300 296 296 295 295 294 294 293 291 289 290 290 290 290 289 289 291 291 291 291 292
294 294 287 286 283 290 292 293 296 296 297 297 297 296 296 296 296 294 295 295 297 295 296 299 297 296 295 294 294 293 292 290 290 291 290 290 291 289 288 290 290 290 291 292
295 294 288 287 292 293 294 295 296 296 296 296 296 295 296 294 296 296 296 296 297 294 297 298 297 296 294 294 293 292 291 290 290 291 289 290 290 289 290 289 290 289 289 291
294 294 292 293 291 290 295 296 296 295 296 296 296 292 292 291 297 297 295 294 289 293 294 296 296 296 294 294 294 293 292 290 291 290 289 290 289 289 289 288 289 289 289 290
293 293 294 294 294 293 294 295 295 296 295 289 293 290 295 292 293 297 293 291 290 297 297 297 296 296 295 294 294 293 291 290 291 290 289 290 289 288 287 287 289 289 289 289
Wind_Speed
58 53 49 47 51 48 41 14 4 20 22 4 3 4 4 1 4 2 2 2 2 2 4 2 1 4 3 11 3 3 4 2 4 4 7 7 5 7 6 4 4 3 3 5
53 52 50 47 45 43 26 11 10 16 21 4 3 2 6 4 2 2 3 3 4 4 3 1 2 4 2 5 3 1 3 1 2 7 4 1 3 3 3 3 3 5 3 3
50 48 48 48 43 29 20 10 4 5 10 5 4 5 5 5 11 4 5 3 4 3 2 2 2 3 5 7 3 3 2 3 5 7 4 4 7 11 9 6 3 11 12 16
48 42 43 43 36 25 18 5 4 10 7 7 4 4 6 7 3 3 7 3 4 4 3 2 2 2 3 5 8 5 2 4 3 9 11 12 11 14 16 10 10 8 13 12
45 41 43 35 26 23 10 8 6 9 8 18 6 4 4 4 3 3 3 6 6 6 3 3 1 2 3 2 4 2 1 2 2 3 7 8 9 12 12 15 11 13 14 14
39 38 35 28 22 23 6 10 13 11 7 5 4 4 5 5 7 4 8 8 5 5 5 7 3 1 5 6 3 3 4 4 3 7 7 6 9 11 14 14 7 6 5 5
32 31 30 21 18 19 19 18 12 6 2 6 5 9 4 8 3 6 5 11 5 5 7 2 3 9 13 14 12 12 4 3 2 6 7 9 7 8 10 9 10 7 4 6
32 30 25 23 20 15 19 15 10 6 3 4 9 12 8 13 10 3 5 5 6 9 5 3 3 3 4 5 8 8 7 2 3 3 11 13 16 13 3 3 10 9 3 4
31 29 25 21 18 15 16 14 12 11 7 3 4 7 10 4 3 2 4 4 12 6 3 3 2 2 2 3 7 6 2 5 5 3 7 6 6 6 14 5 7 3 10 9
28 26 23 18 14 13 15 15 13 20 14 11 8 5 6 6 4 3 3 3 3 6 2 2 2 3 3 3 3 3 3 2 4 1 4 6 6 6 10 4 5 20 27 21
24 22 20 16 14 15 13 17 12 11 7 10 9 9 9 7 5 4 2 3 4 3 3 3 3 3 3 2 2 1 3 2 3 2 2 8 5 10 1 8 29 27 27 27
21 22 20 17 14 14 12 14 11 12 8 6 5 5 3 3 4 7 5 5 3 4 3 1 2 1 1 3 4 4 4 6 3 4 5 9 27 19 30 29 29 32 29 34
21 20 18 15 12 10 10 12 11 10 7 5 3 6 5 6 12 12 7 5 5 5 5 4 2 3 3 3 5 5 4 3 5 3 13 12 23 31 32 33 34 33 31 31
20 18 16 13 10 8 7 8 9 8 6 4 3 6 5 7 11 10 12 11 11 5 6 4 3 2 7 3 5 6 6 3 7 9 13 17 22 22 17 26 30 31 34 33
17 14 11 9 8 9 9 9 7 5 3 3 3 8 2 5 13 13 15 13 12 7 5 2 3 4 2 3 1 4 6 5 3 9 20 17 24 24 29 25 26 27 27 32
13 11 10 11 10 9 7 4 6 3 2 1 2 4 4 4 4 11 13 15 16 15 8 5 5 6 4 1 3 6 16 12 21 21 19 22 27 23 25 28 29 30 31 32
13 12 10 8 6 5 6 5 6 5 4 3 4 5 2 7 2 5 12 11 12 14 11 8 8 8 8 2 9 27 26 26 13 20 17 16 20 27 29 30 33 32 33 34
10 8 7 6 7 7 6 5 5 5 4 2 2 3 6 4 1 3 6 6 9 8 9 3 4 3 7 4 11 14 13 18 15 16 18 19 23 27 28 29 31 34 35 33
9 9 11 10 4 3 5 5 3 1 2 1 2 2 3 3 2 2 3 5 0 3 2 4 5 2 4 8 9 13 9 10 15 21 24 24 26 28 30 32 34 31 34 34
9 9 3 3 3 6 6 3 1 2 1 0 1 3 2 3 1 2 3 1 2 2 4 6 3 3 16 12 7 6 7 10 16 22 26 28 28 31 34 33 32 32 32 34
3 2 3 4 5 2 2 2 2 1 1 4 6 8 4 3 2 3 6 2 2 2 3 3 2 2 3 4 3 4 9 12 14 18 18 20 23 27 32 34 35 33 31 29
4 7 6 4 2 2 4 1 2 2 3 5 4 5 7 4 5 4 4 2 0 4 5 2 2 3 7 4 3 7 11 13 17 18 19 22 23 24 27 30 33 32 32 27
5 2 2 1 1 5 4 2 3 1 3 3 5 1 3 3 4 2 0 2 4 1 2 2 2 3 6 2 5 9 12 15 17 19 20 21 23 29 26 31 32 34 31 29
1 2 2 3 3 3 3 2 2 5 3 8 11 5 5 4 3 2 2 4 1 2 3 3 2 5 5 3 6 10 14 17 18 18 21 22 23 27 27 26 32 35 31 31
1 2 3 4 8 6 7 7 4 6 8 9 8 4 4 2 2 2 3 2 3 3 1 1 5 7 7 6 8 12 16 18 19 18 23 22 22 24 26 26 27 33 35 28
3 5 2 6 1 6 2 2 3 11 6 9 3 1 2 3 2 2 5 2 3 3 2 2 4 7 10 12 11 12 16 17 15 18 22 20 24 25 25 26 25 28 31 31
3 6 10 13 12 12 14 10 8 6 5 1 0 1 6 1 2 3 3 5 3 5 8 11 11 12 11 12 13 12 16 16 14 18 20 19 23 26 26 29 27 27 28 29
Wind_Direction
171 168 160 154 150 146 148 119 102 165 171 130 193 174 180 189 260 309 39 51 23 127 132 175 157 191 1 328 187 166 130 127 281 253 305 290 217 247 185 154 270 248 258 251
156 153 151 149 144 138 132 104 93 147 168 157 198 197 195 211 247 159 80 92 49 30 49 199 215 97 20 15 26 21 155 130 313 305 313 21 155 197 148 110 132 218 272 270
150 146 147 144 148 142 130 120 118 132 199 232 172 149 172 195 202 152 140 131 120 132 170 166 254 9 54 20 35 45 83 188 193 244 280 321 296 290 265 201 199 265 248 276
137 143 146 147 148 144 140 153 148 162 178 205 183 150 174 176 165 195 148 121 103 135 176 28 121 67 17 30 33 35 54 216 229 260 277 295 302 291 293 281 261 258 282 280
135 142 145 149 152 153 187 140 139 158 155 161 146 149 165 121 134 137 142 116 113 88 99 114 69 51 77 214 357 83 323 254 32 275 278 274 283 279 286 282 280 267 268 294
138 143 150 158 160 166 172 133 146 145 140 129 112 181 152 187 134 53 119 137 110 110 145 114 107 276 269 249 243 191 200 185 199 261 252 277 279 251 255 254 247 270 295 219
141 147 151 157 163 176 157 146 144 124 111 128 170 149 133 122 96 124 106 115 115 131 136 118 294 288 272 258 253 219 227 209 169 269 284 251 263 245 263 291 288 292 278 273
143 143 142 151 159 147 150 145 129 104 91 104 100 124 106 104 104 102 141 171 155 156 108 63 7 324 333 273 241 235 198 162 255 239 262 276 294 284 283 277 298 277 308 358
137 133 128 136 146 149 152 131 121 114 111 327 132 112 123 121 121 26 205 91 147 135 92 97 172 230 315 293 323 67 132 234 223 230 273 272 272 316 327 301 277 48 349 320
139 136 133 136 127 137 156 115 119 107 93 39 105 90 119 114 109 102 31 86 119 137 92 91 168 245 246 262 251 321 356 346 174 257 248 258 252 331 324 245 261 319 311 292
135 139 142 133 117 136 147 100 110 112 95 77 91 107 118 115 113 133 176 50 15 55 93 131 228 201 222 283 184 281 221 203 242 206 180 283 187 339 256 278 295 288 285 281
135 138 137 129 116 113 122 105 94 98 101 134 141 155 174 211 195 141 152 147 156 163 102 97 108 280 349 233 267 212 258 190 212 200 231 271 288 284 292 289 281 285 280 287
126 128 130 132 121 105 107 108 97 104 97 97 119 132 123 203 224 226 166 207 191 143 127 151 191 225 161 211 243 238 259 259 231 316 255 270 282 287 290 291 286 290 293 291
125 124 122 118 110 95 87 91 88 87 92 104 184 174 195 188 205 224 239 224 186 196 179 154 165 191 205 228 238 239 231 273 245 266 286 280 282 296 309 312 306 302 299 292
123 120 117 115 113 112 110 105 100 96 78 168 282 300 83 219 224 227 225 216 213 213 159 131 209 220 218 251 288 255 193 219 208 269 285 283 300 312 318 306 304 303 297 297
125 124 123 121 122 125 126 80 70 116 134 86 13 331 16 1 200 210 238 239 231 213 185 194 214 216 187 164 252 229 254 275 288 289 305 305 308 310 307 306 306 307 304 298
123 119 117 115 114 113 88 95 114 95 99 84 354 330 287 319 129 216 221 215 211 225 216 206 208 205 205 220 261 275 291 297 319 319 332 314 313 309 317 314 311 307 302 300
118 117 118 115 116 110 96 106 110 85 75 81 89 290 334 17 248 209 213 226 228 223 216 182 180 205 200 252 253 296 325 321 314 327 329 322 318 317 317 318 318 315 312 310
120 116 113 108 97 76 127 129 136 82 49 43 96 139 248 323 15 275 223 218 71 236 198 209 171 205 218 241 281 319 327 326 316 333 332 332 331 327 328 328 327 321 319 321
122 120 94 82 93 111 113 70 85 12 92 130 197 245 275 332 23 324 347 228 218 208 228 156 176 242 243 238 295 281 315 345 344 336 333 330 330 331 330 330 331 331 330 328
91 69 74 131 124 97 53 86 81 123 338 220 232 228 220 249 167 219 207 224 250 225 237 200 231 209 227 168 231 340 344 343 340 331 329 335 331 333 334 339 342 345 341 339
97 99 91 123 67 47 67 301 319 186 237 195 195 239 225 245 217 219 200 207 201 245 138 213 223 228 209 220 298 339 343 332 330 339 344 352 351 351 347 344 344 346 348 343
129 104 104 116 36 37 120 250 282 297 228 187 208 264 230 239 225 282 182 230 234 150 223 218 191 225 194 265 322 319 321 326 335 340 346 351 353 0 357 354 353 352 351 352
103 159 326 147 289 239 200 216 239 263 283 329 314 268 194 213 199 189 219 234 296 286 236 179 225 244 214 269 292 310 324 331 336 340 347 350 350 353 358 355 354 355 352 353
267 192 232 217 225 233 262 298 273 309 311 329 325 282 194 211 246 209 235 245 238 218 277 197 205 238 236 275 306 320 327 332 335 341 347 350 350 350 354 353 351 352 353 351
232 231 265 236 22 286 264 254 295 326 326 328 269 244 8 267 231 227 233 151 210 249 211 213 276 257 269 280 294 316 333 333 330 340 347 345 349 349 346 346 351 349 354 357
230 242 235 255 272 267 277 289 304 290 329 243 51 49 227 355 262 241 176 175 208 234 257 265 258 235 287 270 289 302 322 323 331 338 341 338 340 346 347 348 349 346 351 351